Tracking 28920 objects as of 25-May-2024
HD Live streaming from Space Station
objects crossing your sky now

PERSEUS M2

Track PERSEUS M2 now!
10-day predictions
PERSEUS M2 is classified as:


NORAD ID: 40037
Int'l Code: 2014-033AD
Perigee: 595.8 km
Apogee: 612.0 km
Inclination: 97.9 °
Period: 96.6 minutes
Semi major axis: 6974 km
RCS: Unknown
Launch date: June 19, 2014
Source: Commonwealth of Independent States (former USSR) (CIS)
Launch site: Orenburg, Russia (OREN)

Uplink (MHz):
Downlink (MHz): 400.190/400.221*
Beacon (MHz):
Mode: 9600bps GFSK
Call sign: CQ
Status:

Your satellite tracking list
Your tracking list is empty




NASA's NSSDC Master Catalog

Two Line Element Set (TLE):
1 40037U 14033AD  24145.79708807  .00003249  00000-0  33934-3 0  9990
2 40037  97.9270  76.5078 0011603 272.9128  87.0761 14.90366997538341
Source of the keplerian elements: AFSPC